TimeEDT,TemperatureF,Dew PointF,Humidity,Sea Level PressureIn,VisibilityMPH,Wind Direction,Wind SpeedMPH,Gust SpeedMPH,PrecipitationIn,Events,Conditions,WindDirDegrees,DateUTC
12:54 AM,59.0,55.9,90,30.21,10.0,East,8.1,-,N/A,,Overcast,100,2012-10-25 04:54:00
1:54 AM,59.0,55.9,90,30.21,9.0,East,5.8,-,N/A,,Overcast,100,2012-10-25 05:54:00
2:54 AM,59.0,55.0,87,30.22,9.0,East,5.8,-,N/A,,Overcast,80,2012-10-25 06:54:00
3:54 AM,59.0,55.0,87,30.20,8.0,ENE,5.8,-,N/A,,Overcast,70,2012-10-25 07:54:00
4:51 AM,59.0,55.4,88,30.21,8.0,East,4.6,-,N/A,,Overcast,80,2012-10-25 08:51:00
4:54 AM,59.0,55.0,87,30.21,8.0,ENE,4.6,-,N/A,,Overcast,70,2012-10-25 08:54:00
5:54 AM,59.0,55.0,87,30.22,8.0,NE,3.5,-,N/A,,Overcast,40,2012-10-25 09:54:00
6:54 AM,57.9,55.9,93,30.24,6.0,ENE,3.5,-,N/A,,Overcast,70,2012-10-25 10:54:00
7:19 AM,57.2,55.4,94,30.24,5.0,East,4.6,-,N/A,,Overcast,80,2012-10-25 11:19:00
7:54 AM,57.9,55.9,93,30.25,3.0,ENE,5.8,-,N/A,,Overcast,70,2012-10-25 11:54:00
8:10 AM,57.2,55.4,94,30.26,2.0,ENE,5.8,-,N/A,,Overcast,70,2012-10-25 12:10:00
8:54 AM,59.0,55.9,90,30.26,2.0,East,4.6,-,N/A,,Overcast,80,2012-10-25 12:54:00
9:36 AM,60.8,55.4,82,30.26,10.0,East,6.9,-,N/A,,Overcast,100,2012-10-25 13:36:00
9:54 AM,60.1,55.9,86,30.26,10.0,ESE,6.9,-,N/A,,Overcast,110,2012-10-25 13:54:00
10:54 AM,61.0,57.0,87,30.27,7.0,Variable,6.9,-,N/A,,Overcast,0,2012-10-25 14:54:00
11:10 AM,60.8,57.2,88,30.26,8.0,East,5.8,-,N/A,,Overcast,80,2012-10-25 15:10:00
11:54 AM,61.0,57.0,87,30.26,8.0,East,4.6,-,N/A,,Overcast,90,2012-10-25 15:54:00
12:54 PM,61.0,57.0,87,30.25,7.0,East,4.6,-,N/A,,Overcast,90,2012-10-25 16:54:00
1:09 PM,60.8,57.2,88,30.25,9.0,East,8.1,-,N/A,,Overcast,80,2012-10-25 17:09:00
1:54 PM,62.1,57.0,84,30.25,10.0,East,5.8,-,N/A,,Overcast,80,2012-10-25 17:54:00
2:54 PM,62.1,57.0,84,30.25,10.0,East,5.8,-,N/A,,Overcast,90,2012-10-25 18:54:00
3:54 PM,61.0,57.0,87,30.25,7.0,East,8.1,-,N/A,,Overcast,90,2012-10-25 19:54:00
4:54 PM,61.0,57.0,87,30.24,9.0,East,6.9,-,N/A,,Overcast,100,2012-10-25 20:54:00
5:54 PM,61.0,57.0,87,30.25,10.0,ESE,5.8,-,N/A,,Overcast,110,2012-10-25 21:54:00
6:54 PM,60.1,57.0,90,30.26,10.0,East,5.8,-,N/A,,Overcast,100,2012-10-25 22:54:00
7:34 PM,60.8,57.2,88,30.26,10.0,East,4.6,-,N/A,,Overcast,100,2012-10-25 23:34:00
7:54 PM,60.1,57.0,90,30.26,10.0,ESE,5.8,-,N/A,,Overcast,120,2012-10-25 23:54:00
8:54 PM,60.1,57.0,90,30.26,10.0,East,6.9,-,N/A,,Overcast,100,2012-10-26 00:54:00
9:54 PM,60.1,57.0,90,30.25,10.0,East,4.6,-,N/A,,Overcast,90,2012-10-26 01:54:00
10:54 PM,60.1,57.0,90,30.24,10.0,East,4.6,-,N/A,,Overcast,90,2012-10-26 02:54:00
11:54 PM,60.1,57.0,90,30.23,10.0,East,5.8,-,N/A,,Overcast,100,2012-10-26 03:54:00